STARLINK-35089, 65484

Orbit data source: Space-Track

STARLINK-35089, 65484 is a payload satellite owned by SpaceX/Seattle (US) in LEO that was launched on Wed, 03 Sep 2025 UTC via an FALCON 9 launch vehicle from the Air Force Eastern Test Range (AFETR). Payload-class satellites include a variety of spacecraft equipped with specific instruments for various scientific and technological missions. These include communications satellites like Starlink; space stations such as the ISS; scientific satellites like the Hubble; Earth observation satellites from companies like Planet Labs, Umbra, and HawkEye 360; GPS; miniature CubeSats for education and research; and military/defense satellites.

Loading next visibility...
Identifier
65484, 2025-195AC
Orbit
LEO
Country
Flag of USUS
Related business
Manufacturer
SpaceX/Seattle
Mission
Operational Commercial Communications
Bus & Motor
STARLINK V2MO, Unknown motor
Mass
575 kg wet, ~530 kg dry
Launch date (UTC)
2025-09-03 (10 months ago)
Launch vehicle
FALCON 9
Launch site
Air Force Eastern Test Range (AFETR)
Object type
Payload
Rocket body
Debris
Shape & HBR
Box + 2 Pan, 17.7 m
Radar Cross Section
36.964 m², Large (>1 m²)

Expand to show TLE details & history
Last TLE update: 13 hours ago

TLE from 13 hours ago
0 STARLINK-35089
1 65484U 25195AC  26171.32129133  .00014371  00000-0  43556-3 0  9992
2 65484  53.1585 140.2648 0001385  84.8517 275.2644 15.34405727 45705
Epoch: 2026-06-20T07:42Z
TLE epoch observation values (Epoch: 2026-06-20T07:42:39.570Z)
Latitude
-0.00001°
Longitude
116.06232°
Altitude
463.501 km
Speed
7.636 km/s
True Right ascension
09h 21m 03s
True Declination
0° 00' 00"
Sunlit
Object was in daylight at epoch
Visualization orbit readout
Latitude
Unknown
Longitude
Unknown
Altitude
Unknown
Speed
Unknown
Apparent Right ascension
Unknown
Apparent Declination
Unknown
Sunlit
N/A
Visualization observer readout
Local Sidereal Time
07:18:49
Azimuth
Unknown
Elevation
Unknown
Doppler factor
Unknown
Orbital elements
Apogee altitude
463.891 km
Perigee altitude
461.996 km
Semi-major axis
6,841.08 km
Eccentricity
0.00014
Inclination
53.1585°
RAAN
140.2648°
Arg. of periapsis
84.8517°
True anomaly
275.2486°
Mean anomaly
275.2644°
Eccentric anomaly
275.2565°
Mean motion
3.8358 °/min
Orbital period
93.85 mins
BSTAR
0.00043556
Loading maneuver chart data...
Computing Atmospheric mass density...
Loading historical data...
Loading historical data...
Loading historical data...
Loading historical data...
Loading historical data...
Loading historical data...
Loading historical data...

Documentation

Showing up to 5 results
|